QPF
0.00 0.00 0.00 0.00 0.00 0.00 0.01 0.01 0.00 0.00 0.01 0.01 0.01 0.01 0.01 0.01 0.01 0.01 0.02 0.02 0.03 0.03 0.03 0.03 0.03 0.03 0.03 0.03 0.02 0.02 0.02 0.02 0.02 0.01 0.01 0.00 0.00 0.00 0.00 0.00 0.00 0.00 0.00
0.00 0.00 0.00 0.00 0.00 0.00 0.00 0.00 0.00 0.01 0.01 0.01 0.01 0.01 0.01 0.01 0.01 0.01 0.01 0.02 0.02 0.02 0.02 0.02 0.02 0.02 0.02 0.02 0.02 0.02 0.02 0.02 0.02 0.01 0.00 0.00 0.00 0.00 0.00 0.00 0.00 0.00 0.00
0.00 0.00 0.01 0.01 0.00 0.00 0.00 0.00 0.01 0.01 0.01 0.01 0.01 0.01 0.01 0.01 0.01 0.02 0.01 0.01 0.01 0.01 0.01 0.01 0.01 0.01 0.02 0.02 0.02 0.02 0.02 0.02 0.02 0.01 0.01 0.00 0.00 0.00 0.00 0.00 0.00 0.00 0.00
0.01 0.00 0.01 0.01 0.01 0.01 0.01 0.01 0.01 0.01 0.01 0.01 0.01 0.01 0.01 0.01 0.01 0.01 0.01 0.01 0.01 0.01 0.01 0.01 0.01 0.01 0.02 0.02 0.02 0.01 0.01 0.01 0.02 0.02 0.02 0.01 0.01 0.00 0.00 0.00 0.00 0.00 0.00
0.01 0.01 0.01 0.01 0.01 0.01 0.01 0.01 0.01 0.01 0.01 0.01 0.01 0.01 0.01 0.01 0.01 0.01 0.02 0.02 0.02 0.02 0.01 0.01 0.01 0.02 0.02 0.02 0.02 0.02 0.02 0.02 0.02 0.02 0.01 0.01 0.01 0.01 0.01 0.01 0.00 0.00 0.00
0.01 0.01 0.01 0.01 0.01 0.01 0.01 0.01 0.01 0.01 0.01 0.01 0.00 0.01 0.01 0.01 0.01 0.01 0.01 0.01 0.01 0.01 0.01 0.01 0.01 0.01 0.02 0.02 0.02 0.02 0.03 0.03 0.03 0.02 0.02 0.01 0.01 0.01 0.01 0.01 0.01 0.01 0.01
0.01 0.01 0.01 0.01 0.01 0.01 0.01 0.01 0.01 0.01 0.01 0.01 0.00 0.00 0.00 0.01 0.01 0.01 0.01 0.01 0.01 0.01 0.01 0.01 0.01 0.01 0.02 0.02 0.02 0.03 0.03 0.03 0.03 0.03 0.03 0.02 0.02 0.02 0.02 0.02 0.01 0.01 0.01
0.01 0.01 0.00 0.00 0.01 0.01 0.01 0.01 0.01 0.01 0.01 0.01 0.01 0.01 0.01 0.01 0.01 0.01 0.01 0.01 0.01 0.01 0.01 0.02 0.02 0.02 0.02 0.02 0.02 0.03 0.03 0.03 0.03 0.03 0.03 0.02 0.02 0.02 0.02 0.02 0.02 0.02 0.02
0.01 0.01 0.01 0.01 0.01 0.01 0.01 0.01 0.01 0.01 0.01 0.01 0.01 0.01 0.01 0.01 0.01 0.01 0.01 0.01 0.01 0.01 0.02 0.02 0.02 0.02 0.03 0.04 0.04 0.03 0.03 0.02 0.02 0.02 0.02 0.02 0.02 0.02 0.02 0.03 0.03 0.03 0.02
0.01 0.01 0.01 0.01 0.01 0.01 0.01 0.01 0.01 0.01 0.01 0.01 0.01 0.01 0.01 0.01 0.01 0.01 0.01 0.01 0.01 0.01 0.01 0.01 0.02 0.02 0.03 0.04 0.03 0.03 0.02 0.02 0.02 0.02 0.02 0.02 0.02 0.02 0.02 0.02 0.03 0.03 0.03
0.01 0.01 0.01 0.01 0.01 0.01 0.01 0.01 0.01 0.01 0.01 0.01 0.01 0.01 0.01 0.02 0.02 0.01 0.01 0.01 0.01 0.01 0.01 0.01 0.01 0.02 0.03 0.03 0.03 0.02 0.02 0.02 0.02 0.02 0.02 0.02 0.02 0.02 0.02 0.02 0.02 0.02 0.02
0.01 0.01 0.01 0.01 0.01 0.01 0.01 0.01 0.01 0.00 0.00 0.00 0.00 0.01 0.01 0.01 0.02 0.02 0.02 0.01 0.01 0.01 0.01 0.01 0.01 0.01 0.02 0.02 0.02 0.02 0.02 0.02 0.02 0.02 0.02 0.01 0.01 0.01 0.01 0.01 0.01 0.01 0.02
0.01 0.01 0.01 0.01 0.01 0.01 0.01 0.01 0.01 0.01 0.01 0.00 0.00 0.01 0.01 0.01 0.01 0.01 0.01 0.01 0.01 0.01 0.01 0.01 0.01 0.01 0.01 0.01 0.01 0.01 0.01 0.02 0.02 0.02 0.01 0.01 0.01 0.01 0.01 0.02 0.02 0.02 0.02
0.01 0.01 0.01 0.01 0.01 0.01 0.01 0.01 0.01 0.01 0.01 0.01 0.01 0.01 0.01 0.01 0.01 0.01 0.01 0.01 0.01 0.01 0.01 0.01 0.01 0.01 0.01 0.01 0.01 0.01 0.01 0.01 0.01 0.01 0.01 0.01 0.01 0.01 0.01 0.01 0.01 0.02 0.02
0.01 0.01 0.01 0.01 0.01 0.01 0.01 0.01 0.01 0.01 0.01 0.01 0.01 0.01 0.01 0.01 0.01 0.01 0.02 0.02 0.01 0.01 0.02 0.02 0.02 0.02 0.01 0.01 0.01 0.01 0.01 0.01 0.02 0.02 0.01 0.02 0.02 0.02 0.01 0.01 0.02 0.02 0.02
0.01 0.01 0.01 0.01 0.01 0.01 0.01 0.01 0.01 0.01 0.01 0.01 0.01 0.01 0.01 0.01 0.01 0.01 0.02 0.02 0.02 0.02 0.02 0.02 0.01 0.01 0.01 0.01 0.01 0.01 0.02 0.02 0.02 0.02 0.02 0.01 0.01 0.01 0.01 0.01 0.02 0.02 0.02
0.01 0.01 0.01 0.01 0.01 0.01 0.01 0.01 0.01 0.01 0.01 0.01 0.00 0.01 0.01 0.01 0.01 0.01 0.01 0.01 0.02 0.02 0.02 0.01 0.01 0.01 0.01 0.01 0.01 0.01 0.02 0.02 0.02 0.02 0.02 0.02 0.02 0.01 0.01 0.01 0.01 0.02 0.02
0.01 0.01 0.01 0.02 0.02 0.02 0.01 0.01 0.01 0.01 0.01 0.01 0.01 0.01 0.01 0.01 0.01 0.01 0.01 0.01 0.01 0.01 0.01 0.01 0.01 0.01 0.01 0.01 0.02 0.02 0.02 0.02 0.02 0.02 0.02 0.02 0.02 0.02 0.01 0.01 0.01 0.01 0.02
0.01 0.01 0.02 0.02 0.02 0.01 0.01 0.01 0.01 0.01 0.01 0.01 0.01 0.01 0.01 0.01 0.00 0.01 0.01 0.01 0.01 0.01 0.01 0.01 0.01 0.01 0.01 0.02 0.02 0.02 0.03 0.03 0.03 0.03 0.02 0.02 0.02 0.02 0.02 0.02 0.02 0.02 0.02
0.01 0.02 0.02 0.02 0.02 0.01 0.01 0.01 0.01 0.01 0.01 0.01 0.01 0.01 0.01 0.01 0.01 0.00 0.00 0.01 0.01 0.01 0.01 0.01 0.01 0.01 0.01 0.02 0.02 0.03 0.03 0.03 0.03 0.03 0.03 0.02 0.02 0.02 0.02 0.01 0.02 0.02 0.02
0.01 0.01 0.02 0.02 0.01 0.01 0.01 0.01 0.01 0.01 0.01 0.01 0.01 0.01 0.02 0.02 0.01 0.01 0.01 0.01 0.01 0.01 0.01 0.01 0.01 0.01 0.02 0.02 0.02 0.02 0.03 0.03 0.03 0.03 0.03 0.02 0.02 0.02 0.01 0.01 0.01 0.01 0.01
0.02 0.02 0.01 0.01 0.01 0.01 0.01 0.01 0.01 0.01 0.01 0.01 0.01 0.01 0.01 0.01 0.01 0.01 0.01 0.01 0.01 0.02 0.02 0.02 0.02 0.02 0.02 0.02 0.02 0.03 0.03 0.03 0.03 0.03 0.03 0.02 0.02 0.02 0.02 0.02 0.01 0.01 0.01
0.01 0.01 0.01 0.01 0.01 0.01 0.01 0.01 0.01 0.01 0.01 0.01 0.01 0.01 0.01 0.01 0.01 0.01 0.01 0.01 0.02 0.02 0.02 0.02 0.02 0.02 0.02 0.02 0.03 0.03 0.03 0.03 0.03 0.03 0.03 0.03 0.02 0.02 0.02 0.02 0.02 0.02 0.02
0.02 0.01 0.01 0.01 0.01 0.01 0.01 0.01 0.01 0.01 0.01 0.01 0.01 0.01 0.01 0.01 0.01 0.01 0.01 0.01 0.01 0.02 0.02 0.02 0.02 0.02 0.02 0.02 0.03 0.03 0.03 0.03 0.04 0.04 0.04 0.03 0.03 0.03 0.03 0.03 0.02 0.02 0.02
0.02 0.02 0.01 0.01 0.01 0.01 0.01 0.01 0.01 0.01 0.01 0.01 0.01 0.01 0.01 0.01 0.01 0.01 0.01 0.01 0.01 0.01 0.01 0.01 0.01 0.02 0.02 0.02 0.02 0.03 0.03 0.03 0.03 0.03 0.03 0.03 0.03 0.03 0.02 0.02 0.02 0.02 0.02
0.01 0.02 0.02 0.01 0.01 0.00 0.00 0.00 0.00 0.00 0.00 0.00 0.01 0.01 0.01 0.01 0.01 0.01 0.01 0.01 0.01 0.01 0.01 0.01 0.01 0.01 0.02 0.02 0.02 0.02 0.03 0.03 0.03 0.03 0.03 0.03 0.03 0.02 0.02 0.02 0.02 0.02 0.02
MSLP
1010.89 1010.72 1010.57 1010.45 1010.38 1010.39 1010.52 1010.77 1011.17 1011.70 1012.35 1013.09 1013.87 1014.65 1015.41 1016.13 1016.81 1017.45 1018.06 1018.65 1019.24 1019.82 1020.39 1020.93 1021.45 1021.93 1022.37 1022.80 1023.22 1023.67 1024.18 1024.77 1025.43 1026.17 1026.96 1027.76 1028.54 1029.25 1029.85 1030.34 1030.70 1030.95 1031.10
1010.62 1010.35 1010.10 1009.88 1009.71 1009.64 1009.70 1009.90 1010.25 1010.75 1011.37 1012.08 1012.83 1013.59 1014.32 1015.01 1015.65 1016.26 1016.84 1017.42 1018.00 1018.59 1019.17 1019.75 1020.30 1020.82 1021.30 1021.77 1022.23 1022.73 1023.27 1023.89 1024.60 1025.38 1026.22 1027.07 1027.90 1028.66 1029.32 1029.85 1030.24 1030.50 1030.67
1010.50 1010.14 1009.79 1009.47 1009.22 1009.06 1009.04 1009.17 1009.46 1009.91 1010.48 1011.15 1011.86 1012.57 1013.26 1013.91 1014.52 1015.10 1015.66 1016.22 1016.79 1017.38 1017.97 1018.56 1019.13 1019.67 1020.18 1020.67 1021.16 1021.68 1022.25 1022.89 1023.62 1024.43 1025.30 1026.20 1027.07 1027.88 1028.58 1029.16 1029.59 1029.89 1030.08
1010.51 1010.07 1009.64 1009.23 1008.89 1008.65 1008.55 1008.60 1008.82 1009.20 1009.71 1010.31 1010.96 1011.62 1012.26 1012.87 1013.44 1013.99 1014.52 1015.07 1015.63 1016.21 1016.80 1017.39 1017.97 1018.52 1019.03 1019.53 1020.02 1020.54 1021.11 1021.75 1022.48 1023.30 1024.18 1025.09 1025.99 1026.83 1027.58 1028.21 1028.70 1029.05 1029.30
1010.61 1010.11 1009.60 1009.12 1008.70 1008.39 1008.21 1008.18 1008.32 1008.62 1009.05 1009.57 1010.15 1010.74 1011.33 1011.89 1012.42 1012.93 1013.45 1013.97 1014.52 1015.09 1015.67 1016.26 1016.83 1017.37 1017.87 1018.36 1018.83 1019.33 1019.87 1020.49 1021.19 1021.98 1022.85 1023.75 1024.66 1025.52 1026.30 1026.98 1027.53 1027.96 1028.28
1010.76 1010.21 1009.66 1009.12 1008.64 1008.26 1008.01 1007.90 1007.96 1008.18 1008.52 1008.95 1009.45 1009.97 1010.48 1010.98 1011.46 1011.94 1012.42 1012.93 1013.46 1014.01 1014.58 1015.15 1015.70 1016.23 1016.71 1017.17 1017.62 1018.08 1018.58 1019.15 1019.80 1020.54 1021.36 1022.23 1023.12 1023.98 1024.78 1025.50 1026.12 1026.63 1027.04
1010.93 1010.36 1009.77 1009.20 1008.67 1008.24 1007.93 1007.76 1007.74 1007.86 1008.11 1008.46 1008.86 1009.29 1009.72 1010.15 1010.58 1011.01 1011.45 1011.92 1012.42 1012.95 1013.50 1014.05 1014.58 1015.09 1015.55 1015.99 1016.40 1016.82 1017.27 1017.79 1018.38 1019.05 1019.80 1020.61 1021.46 1022.30 1023.10 1023.85 1024.52 1025.10 1025.61
1011.08 1010.50 1009.90 1009.31 1008.76 1008.29 1007.93 1007.70 1007.61 1007.66 1007.82 1008.06 1008.37 1008.71 1009.05 1009.40 1009.75 1010.12 1010.51 1010.93 1011.39 1011.89 1012.41 1012.93 1013.45 1013.94 1014.39 1014.80 1015.20 1015.59 1016.00 1016.46 1016.98 1017.58 1018.26 1019.00 1019.79 1020.59 1021.38 1022.13 1022.83 1023.48 1024.07
1011.20 1010.62 1010.02 1009.41 1008.85 1008.35 1007.95 1007.68 1007.53 1007.50 1007.58 1007.74 1007.95 1008.19 1008.44 1008.70 1008.97 1009.26 1009.58 1009.94 1010.35 1010.80 1011.28 1011.78 1012.28 1012.76 1013.21 1013.62 1014.01 1014.38 1014.77 1015.19 1015.66 1016.20 1016.81 1017.48 1018.20 1018.94 1019.70 1020.45 1021.17 1021.85 1022.50
1011.30 1010.71 1010.10 1009.48 1008.90 1008.38 1007.96 1007.64 1007.44 1007.34 1007.35 1007.42 1007.54 1007.68 1007.84 1008.01 1008.20 1008.41 1008.65 1008.94 1009.29 1009.69 1010.13 1010.60 1011.08 1011.56 1012.01 1012.43 1012.82 1013.21 1013.59 1013.99 1014.43 1014.92 1015.47 1016.08 1016.73 1017.43 1018.14 1018.87 1019.60 1020.31 1021.00
1011.39 1010.78 1010.15 1009.51 1008.90 1008.35 1007.89 1007.53 1007.28 1007.12 1007.05 1007.05 1007.09 1007.15 1007.23 1007.32 1007.42 1007.55 1007.72 1007.94 1008.23 1008.57 1008.97 1009.41 1009.87 1010.34 1010.79 1011.23 1011.65 1012.04 1012.44 1012.84 1013.27 1013.73 1014.24 1014.80 1015.41 1016.06 1016.74 1017.45 1018.17 1018.89 1019.61
1011.52 1010.86 1010.18 1009.50 1008.85 1008.26 1007.74 1007.33 1007.02 1006.80 1006.66 1006.59 1006.55 1006.55 1006.56 1006.58 1006.62 1006.68 1006.79 1006.95 1007.18 1007.47 1007.82 1008.23 1008.67 1009.12 1009.58 1010.03 1010.46 1010.88 1011.29 1011.71 1012.14 1012.59 1013.08 1013.62 1014.20 1014.82 1015.48 1016.17 1016.89 1017.62 1018.35
1011.73 1011.00 1010.25 1009.49 1008.77 1008.11 1007.53 1007.04 1006.66 1006.37 1006.16 1006.02 1005.92 1005.86 1005.82 1005.79 1005.78 1005.80 1005.86 1005.98 1006.16 1006.41 1006.72 1007.09 1007.50 1007.94 1008.39 1008.84 1009.28 1009.71 1010.14 1010.56 1011.00 1011.45 1011.94 1012.47 1013.04 1013.66 1014.32 1015.01 1015.73 1016.48 1017.23
1012.06 1011.23 1010.38 1009.54 1008.72 1007.96 1007.29 1006.71 1006.23 1005.86 1005.57 1005.36 1005.21 1005.09 1005.01 1004.95 1004.92 1004.92 1004.95 1005.05 1005.20 1005.41 1005.69 1006.02 1006.40 1006.81 1007.23 1007.67 1008.10 1008.53 1008.95 1009.38 1009.82 1010.28 1010.78 1011.32 1011.90 1012.53 1013.21 1013.93 1014.67 1015.43 1016.20
1012.53 1011.60 1010.65 1009.69 1008.76 1007.88 1007.09 1006.40 1005.81 1005.33 1004.95 1004.66 1004.44 1004.28 1004.16 1004.08 1004.03 1004.02 1004.05 1004.14 1004.27 1004.46 1004.71 1005.01 1005.35 1005.72 1006.11 1006.51 1006.92 1007.32 1007.73 1008.15 1008.59 1009.06 1009.57 1010.13 1010.74 1011.40 1012.12 1012.87 1013.65 1014.45 1015.24
1013.14 1012.12 1011.06 1009.99 1008.94 1007.94 1007.02 1006.20 1005.48 1004.88 1004.39 1004.00 1003.70 1003.48 1003.32 1003.21 1003.15 1003.13 1003.16 1003.24 1003.37 1003.54 1003.77 1004.03 1004.33 1004.66 1005.01 1005.37 1005.73 1006.11 1006.49 1006.90 1007.33 1007.80 1008.33 1008.91 1009.56 1010.26 1011.03 1011.83 1012.66 1013.50 1014.33
1013.86 1012.76 1011.62 1010.45 1009.29 1008.17 1007.12 1006.16 1005.31 1004.57 1003.95 1003.45 1003.05 1002.75 1002.53 1002.38 1002.29 1002.26 1002.27 1002.34 1002.46 1002.61 1002.81 1003.04 1003.31 1003.59 1003.89 1004.21 1004.53 1004.87 1005.23 1005.62 1006.04 1006.52 1007.06 1007.68 1008.36 1009.12 1009.94 1010.80 1011.69 1012.58 1013.45
1014.62 1013.48 1012.28 1011.04 1009.80 1008.58 1007.41 1006.33 1005.34 1004.46 1003.71 1003.08 1002.56 1002.16 1001.85 1001.63 1001.49 1001.41 1001.40 1001.43 1001.52 1001.65 1001.81 1002.01 1002.23 1002.47 1002.73 1003.01 1003.30 1003.62 1003.96 1004.33 1004.76 1005.25 1005.81 1006.46 1007.18 1007.99 1008.86 1009.78 1010.73 1011.67 1012.59
1015.34 1014.19 1012.98 1011.71 1010.42 1009.14 1007.88 1006.69 1005.58 1004.58 1003.69 1002.93 1002.29 1001.76 1001.35 1001.03 1000.80 1000.65 1000.56 1000.54 1000.57 1000.64 1000.76 1000.91 1001.09 1001.29 1001.52 1001.77 1002.04 1002.34 1002.67 1003.05 1003.49 1004.00 1004.58 1005.26 1006.03 1006.88 1007.80 1008.78 1009.77 1010.77 1011.73
1015.93 1014.83 1013.64 1012.39 1011.09 1009.78 1008.48 1007.22 1006.02 1004.92 1003.91 1003.02 1002.25 1001.60 1001.06 1000.62 1000.27 1000.00 999.82 999.70 999.64 999.63 999.67 999.76 999.89 1000.05 1000.25 1000.48 1000.74 1001.04 1001.38 1001.78 1002.23 1002.77 1003.39 1004.10 1004.90 1005.79 1006.75 1007.77 1008.81 1009.85 1010.86
1016.36 1015.32 1014.20 1013.00 1011.73 1010.44 1009.13 1007.85 1006.61 1005.43 1004.34 1003.35 1002.46 1001.69 1001.01 1000.44 999.95 999.55 999.23 998.98 998.80 998.69 998.63 998.64 998.70 998.81 998.97 999.17 999.43 999.73 1000.09 1000.51 1000.99 1001.55 1002.20 1002.94 1003.78 1004.70 1005.69 1006.74 1007.82 1008.90 1009.96
1016.60 1015.65 1014.61 1013.48 1012.29 1011.05 1009.78 1008.51 1007.27 1006.07 1004.93 1003.88 1002.90 1002.02 1001.23 1000.52 999.89 999.34 998.87 998.47 998.15 997.90 997.72 997.62 997.59 997.63 997.74 997.92 998.16 998.46 998.82 999.25 999.76 1000.34 1001.02 1001.78 1002.63 1003.57 1004.58 1005.66 1006.77 1007.88 1008.98
1016.67 1015.80 1014.85 1013.82 1012.72 1011.55 1010.36 1009.15 1007.95 1006.77 1005.63 1004.55 1003.53 1002.58 1001.69 1000.87 1000.12 999.43 998.80 998.25 997.77 997.37 997.05 996.82 996.68 996.63 996.66 996.78 996.98 997.26 997.61 998.03 998.54 999.13 999.81 1000.58 1001.44 1002.38 1003.41 1004.49 1005.62 1006.77 1007.90
1016.61 1015.82 1014.96 1014.02 1013.01 1011.94 1010.84 1009.72 1008.59 1007.47 1006.37 1005.31 1004.28 1003.30 1002.35 1001.46 1000.60 999.79 999.03 998.34 997.71 997.16 996.69 996.32 996.05 995.87 995.80 995.83 995.96 996.18 996.48 996.88 997.36 997.92 998.58 999.34 1000.19 1001.13 1002.15 1003.25 1004.39 1005.56 1006.73
1016.48 1015.76 1014.96 1014.10 1013.19 1012.22 1011.22 1010.19 1009.15 1008.11 1007.09 1006.07 1005.07 1004.09 1003.13 1002.19 1001.27 1000.38 999.52 998.71 997.95 997.26 996.65 996.13 995.72 995.41 995.21 995.13 995.15 995.27 995.49 995.81 996.23 996.74 997.36 998.08 998.91 999.83 1000.85 1001.94 1003.10 1004.29 1005.49
1016.34 1015.65 1014.91 1014.12 1013.28 1012.40 1011.49 1010.56 1009.62 1008.67 1007.72 1006.77 1005.82 1004.87 1003.93 1002.98 1002.03 1001.09 1000.17 999.27 998.41 997.61 996.88 996.23 995.67 995.22 994.88 994.66 994.55 994.55 994.65 994.87 995.19 995.63 996.18 996.85 997.63 998.53 999.53 1000.62 1001.78 1002.99 1004.21
Thickness
5494 5495 5496 5496 5496 5496 5496 5495 5495 5496 5496 5496 5496 5494 5493 5492 5491 5490 5489 5488 5487 5485 5484 5483 5481 5479 5478 5476 5474 5472 5471 5471 5474 5476 5473 5470 5467 5466 5465 5463 5463 5463 5463
5483 5483 5484 5485 5485 5486 5486 5485 5485 5486 5486 5486 5486 5485 5484 5483 5482 5481 5480 5479 5478 5476 5475 5473 5472 5470 5468 5467 5465 5463 5461 5461 5461 5463 5462 5460 5458 5456 5455 5454 5453 5453 5453
5470 5471 5473 5473 5474 5475 5475 5475 5475 5475 5475 5475 5475 5475 5474 5473 5472 5472 5471 5470 5468 5467 5466 5464 5463 5461 5459 5457 5455 5454 5452 5450 5449 5449 5450 5449 5447 5445 5444 5444 5443 5443 5443
5458 5459 5460 5461 5462 5462 5463 5463 5463 5464 5464 5464 5464 5464 5463 5462 5462 5461 5460 5459 5458 5456 5455 5454 5452 5451 5449 5448 5446 5444 5441 5440 5438 5437 5437 5437 5436 5434 5432 5433 5434 5433 5433
5445 5446 5447 5448 5449 5450 5450 5451 5451 5452 5452 5452 5452 5452 5451 5451 5450 5449 5448 5447 5446 5445 5444 5443 5441 5440 5438 5436 5435 5433 5430 5429 5427 5426 5427 5427 5426 5423 5423 5422 5422 5423 5423
5433 5434 5435 5435 5436 5437 5438 5438 5439 5439 5440 5440 5440 5440 5439 5439 5438 5437 5436 5435 5434 5433 5433 5431 5430 5427 5426 5423 5422 5420 5419 5417 5417 5416 5417 5417 5417 5415 5412 5410 5409 5410 5413
5421 5422 5422 5422 5423 5423 5424 5425 5426 5426 5426 5427 5427 5426 5427 5426 5426 5425 5423 5423 5422 5422 5421 5419 5418 5416 5414 5412 5410 5408 5406 5405 5405 5405 5406 5407 5406 5404 5400 5399 5398 5398 5400
5408 5408 5408 5409 5409 5410 5410 5411 5412 5412 5413 5413 5413 5413 5414 5414 5413 5412 5411 5410 5410 5409 5408 5407 5406 5405 5402 5400 5399 5397 5396 5395 5393 5392 5393 5394 5392 5390 5388 5386 5385 5384 5384
5393 5394 5394 5394 5395 5396 5397 5397 5398 5399 5399 5400 5399 5400 5400 5400 5400 5399 5398 5397 5397 5397 5396 5394 5393 5392 5390 5388 5386 5386 5385 5384 5381 5379 5379 5379 5377 5375 5373 5371 5370 5369 5372
5378 5379 5379 5380 5382 5382 5383 5383 5384 5384 5385 5385 5385 5385 5386 5386 5386 5385 5384 5384 5384 5384 5383 5381 5379 5378 5377 5374 5373 5373 5373 5372 5369 5368 5366 5365 5363 5361 5359 5357 5355 5354 5355
5363 5364 5364 5365 5367 5368 5368 5369 5369 5370 5370 5371 5371 5372 5371 5371 5371 5371 5370 5369 5369 5370 5370 5369 5367 5365 5363 5361 5360 5359 5359 5357 5355 5354 5352 5351 5349 5348 5345 5342 5340 5338 5338
5347 5348 5349 5350 5351 5352 5353 5354 5354 5354 5355 5356 5356 5357 5357 5356 5356 5356 5355 5354 5354 5354 5355 5354 5353 5351 5349 5348 5346 5345 5343 5341 5340 5339 5338 5338 5336 5334 5331 5328 5325 5322 5320
5331 5332 5333 5333 5334 5335 5337 5338 5338 5338 5339 5341 5341 5342 5343 5342 5341 5341 5340 5340 5339 5338 5339 5338 5337 5336 5334 5333 5332 5330 5327 5326 5325 5324 5324 5324 5321 5319 5315 5312 5309 5306 5305
5313 5315 5316 5317 5318 5319 5320 5321 5322 5323 5324 5325 5325 5326 5327 5327 5326 5325 5325 5324 5324 5323 5322 5322 5321 5320 5319 5319 5317 5315 5313 5312 5310 5309 5309 5307 5304 5302 5300 5297 5294 5292 5291
5296 5298 5299 5300 5301 5302 5303 5304 5305 5306 5307 5308 5309 5309 5310 5312 5311 5309 5309 5310 5309 5309 5307 5306 5307 5306 5306 5305 5303 5301 5299 5297 5295 5293 5291 5290 5288 5287 5285 5281 5278 5276 5276
5278 5280 5281 5282 5283 5284 5286 5288 5289 5290 5290 5291 5292 5292 5294 5294 5295 5295 5295 5295 5295 5293 5292 5293 5293 5292 5291 5290 5289 5287 5285 5283 5281 5279 5276 5274 5272 5270 5268 5266 5263 5262 5262
5258 5260 5262 5263 5264 5266 5267 5270 5273 5274 5274 5274 5275 5276 5278 5279 5280 5281 5281 5281 5280 5278 5278 5279 5279 5277 5276 5275 5273 5272 5271 5269 5266 5264 5262 5259 5257 5254 5252 5251 5249 5248 5247
5239 5241 5242 5243 5245 5246 5248 5250 5253 5256 5258 5260 5260 5260 5262 5263 5265 5266 5265 5265 5265 5264 5263 5263 5263 5262 5261 5260 5258 5257 5256 5254 5252 5250 5248 5245 5242 5241 5239 5237 5235 5233 5233
5222 5224 5224 5225 5226 5227 5229 5232 5234 5236 5238 5241 5243 5244 5244 5246 5248 5249 5249 5248 5249 5249 5248 5247 5246 5246 5245 5244 5243 5242 5241 5240 5238 5236 5235 5233 5230 5228 5226 5224 5222 5219 5217
5205 5206 5206 5208 5209 5211 5212 5214 5216 5218 5220 5222 5224 5225 5226 5228 5231 5232 5232 5232 5233 5233 5233 5233 5232 5231 5230 5230 5228 5227 5226 5225 5225 5224 5222 5220 5218 5216 5214 5212 5210 5208 5206
5190 5191 5190 5191 5192 5194 5195 5196 5198 5199 5201 5204 5206 5207 5209 5211 5214 5216 5216 5217 5218 5219 5219 5219 5218 5218 5217 5216 5215 5214 5213 5212 5211 5210 5209 5208 5206 5205 5203 5200 5199 5196 5194
5175 5175 5176 5176 5177 5178 5178 5180 5181 5182 5184 5186 5189 5191 5193 5194 5196 5198 5200 5202 5203 5203 5204 5204 5205 5205 5205 5204 5202 5202 5201 5200 5200 5198 5197 5196 5195 5193 5191 5189 5187 5186 5183
5161 5161 5161 5162 5162 5162 5163 5164 5165 5166 5168 5170 5172 5175 5177 5179 5181 5183 5185 5186 5188 5189 5190 5190 5192 5192 5192 5191 5191 5190 5189 5189 5188 5187 5185 5184 5183 5182 5181 5179 5177 5174 5173
5148 5148 5148 5148 5148 5148 5149 5150 5151 5152 5153 5155 5157 5159 5162 5164 5167 5169 5171 5172 5174 5175 5176 5177 5179 5180 5180 5180 5180 5179 5179 5178 5176 5175 5174 5173 5173 5171 5170 5168 5166 5165 5163
5135 5135 5135 5135 5135 5136 5136 5138 5139 5139 5141 5142 5144 5147 5149 5151 5154 5156 5158 5160 5162 5163 5165 5166 5167 5169 5170 5170 5170 5170 5169 5168 5167 5166 5164 5163 5163 5161 5159 5157 5156 5155 5153
5123 5123 5123 5123 5123 5124 5124 5126 5127 5128 5129 5131 5133 5135 5137 5139 5142 5144 5146 5148 5150 5152 5154 5156 5157 5158 5160 5160 5161 5161 5161 5160 5159 5158 5156 5155 5154 5152 5150 5148 5146 5145 5144